Regional Weather Roundup
Issued by NWS Bismarck, ND

Home | Current Version | Previous Version | Text Only | Print | Product List | Glossary On
Versions: 1 2 3 4 5 6 7 8 9 10 11 12 13 14 15 16 17 18 19 20 21 22 23 24 25 26 27 28 29 30 31 32 33 34 35 36 37 38 39 40 41 42 43 44 45 46 47 48 49 50
000
ASUS43 KBIS 221210
RWRBIS

NWR BROADCAST TEXT
NATIONAL WEATHER SERVICE BISMARCK ND
600 AM CST WED FEB 22 2017

NOTE: "FAIR" INDICATES FEW OR NO CLOUDS BELOW 12,000 FEET WITH NO
SIGNIFICANT WEATHER AND/OR OBSTRUCTIONS TO VISIBILITY.


CITY           SKY/WX    TMP DP  RH WIND       PRES   REMARKS
WILLISTON      LGT SNOW  32  31  96 N14       29.79R FOG
MINOT          LGT SNOW  32  30  92 N16       29.74S FOG
MINOT AFB      LGT SNOW  31  28  89 N15       29.74S FOG
BISMARCK       LGT RAIN  35  34  96 NW5       29.70S
DICKINSON      LGT SNOW  32  31  96 NE12      29.66F FOG
GARRISON         N/A     32  31  96 N9        29.71R
HETTINGER ARPT CLOUDY    38  36  92 NE5       29.66F
JAMESTOWN      FAIR      34  32  92 N8        29.65S
CARRINGTON     CLOUDY    34  32  93 N8        29.70F FOG
HAZEN          HVY SNOW N/A N/A N/A N7        29.73S
MANDAN         LGT RAIN  32  32 100 N10       29.70R
RUGBY            N/A     32  32 100 NE13      29.73S
STANLEY        FLURRIES  30  30 100 NE8G16    29.78R
TIOGA          CLOUDY    30  30 100 NE10      29.78R
WATFORD CITY   LGT SNOW  32  32 100 NE10      29.77R
$$

CITY           SKY/WX    TMP DP  RH WIND       PRES   REMARKS
GRAND FORKS    CLOUDY    33  29  85 N12       29.71R FOG
GRAND FORKS AF CLOUDY    32  32 100 N10       29.71R FOG
DEVILS LAKE    MIX PCPN  32  31  96 N10       29.71R FOG
FARGO          CLOUDY    34  34 100 N13       29.68R FOG
CAVALIER       LGT SNOW  32  32 100 N10       29.75R
GRAFTON        CLOUDY    32  32 100 N12       29.75R FOG
GWINNER        FAIR      36  36 100 N9        29.65R
ROLLA          MIX PCPN  32  32 100 NE10      29.76R
$$

CITY           SKY/WX    TMP DP  RH WIND       PRES   REMARKS
ABERDEEN       FAIR      36  32  85 NW3       29.66R
MOBRIDGE       FAIR      37  33  85 N12       29.61F
BUFFALO          N/A     36  34  92 W9        29.63R
RAPID CITY     FAIR      44  32  62 NW10      29.70R
GLASGOW        LGT SNOW  31  29  92 NW9       29.83R FOG
SIDNEY         LGT SNOW  32  31  96 N14       29.77R FOG
WOLF POINT     LGT SNOW  33  30  88 NE10      29.82R FOG
MILES CITY     MOCLDY    34  32  92 S8        29.73R
BAKER          FOG       33  33 100 NW9       29.70R VSB 1/4
$$

CITY           SKY/WX    TMP DP  RH WIND       PRES   REMARKS
BILLINGS       CLOUDY    39  24  55 W9        29.79R
GREAT FALLS    CLOUDY    31  29  92 SW8       29.84R
REGINA         CLOUDY    28  25  86 NW5       29.85R
ESTEVAN        CLOUDY    30  27  86 N13       29.81R
$$




USA.gov is the U.S. government's official web portal to all federal, state and local government web resources and services.